Погода в Матвеевке

Россия / Курганская область     54°34′10″N   63°40′10″E
темп.,
°C
ветер,
м/с
пор.,
м/с
влажн.,
%
обл.,
%
осадки,
мм/ч
давл.,
гПа
погр.,
м
21 апреля, ср
ср2123:00+3зюз36470 0.0 103088
02:00+2зсз47590 0.0 1030105
05:00+1сз46700 0.0 103086
08:00+4ссз47630 0.0 1031243
11:00+9ссз44450 0.0 1032936
14:00+12ссз44365 0.0 10321567
17:00+13с33345 0.0 10321768
20:00+10св22475 0.0 103310
22 апреля, чт
чт2223:00+8вюв22560 0.0 103412
02:00+6ююв22655 0.0 103514
05:00+5ююв22705 0.0 103621
08:00+8юв3458100 0.0 1037198
11:00+12ю4541100 0.0 10371159
14:00+15ю5634100 0.0 10361890
17:00+14ю5634100 0.0 10361945
20:00+12ююв3749100 0.0 1036145
23 апреля, пт
пт2323:00+9ю3659100 0.0 1036120
02:00+8ююв4966100 0.0 1035188
05:00+8ю51258100 0.0 1035374
08:00+8ю5856100 0.0 1036354
11:00+12ююв674690 0.0 1035703
14:00+15ю7836100 0.0 10331926
17:00+14ю6736100 0.0 10321830
20:00+12ююв5947100 0.0 1032274
24 апреля, сб
сб2423:00+10ююв51144100 0.0 1031342
02:00+9ююв3847100 0.0 1030264
05:00+8юв3352100 0.0 102984
08:00+8юв2255100 0.0 1028139
11:00+11ююв6942100 0.0 10271139
14:00+13ююв81033100 0.0 10251403
17:00+11ююв71136100 0.0 10231456
20:00+9юв51142100 0.0 1023641
25 апреля, вс
вс2523:00+9юв51045100 0.0 1021496
02:00+7вюв6115596 0.0 1019486
05:00+6вюв71366100 0.0 1016462
08:00+8юв695199 0.0 1015622
11:00+8ю4768100 0.2 1014554
14:00+8ююз5887100 1.6 1014717
17:00+10з795851 1.7 10151142
20:00+8зюз336853 0.0 101540